This is the latest recevied weather packets stored in our database for station/object IN3XSV-15. If no packets are shown the sender has not sent any weather packets the latest 10 day(s).
| Time | Temp. | Humidity | Pressure | Rain* | Wind** | Luminosity | Snow |
|---|---|---|---|---|---|---|---|
| 1777097721 | 11.11° C | 39% | 858.3 hPa | 0 mm | - | - | - |
| 1777097421 | 11.11° C | 40% | 858.3 hPa | 0 mm | - | - | - |
| 1777097121 | 11.11° C | 40% | 858.2 hPa | 0 mm | - | - | - |
| 1777096821 | 10.56° C | 41% | 858.2 hPa | 0 mm | - | - | - |
| 1777096521 | 10.56° C | 40% | 858.3 hPa | 0 mm | - | - | - |
| 1777096221 | 11.11° C | 40% | 858.3 hPa | 0 mm | - | - | - |
| 1777095921 | 11.67° C | 39% | 858.3 hPa | 0 mm | - | - | - |
| 1777095621 | 12.78° C | 39% | 858.3 hPa | 0 mm | - | - | - |
| 1777095321 | 13.33° C | 38% | 858.2 hPa | 0 mm | - | - | - |
| 1777095021 | 13.89° C | 40% | 858.3 hPa | 0 mm | - | - | - |
| 1777094721 | 13.33° C | 40% | 858.2 hPa | 0 mm | - | - | - |
| 1777094421 | 12.78° C | 42% | 858.1 hPa | 0 mm | - | - | - |
| 1777094121 | 12.22° C | 44% | 858.2 hPa | 0 mm | - | - | - |
| 1777093821 | 10.56° C | 45% | 858.1 hPa | 0 mm | - | - | - |
| 1777093521 | 10° C | 46% | 858.1 hPa | 0 mm | - | - | - |
| 1777093221 | 10.56° C | 46% | 858 hPa | 0 mm | - | - | - |
| 1777092921 | 10° C | 48% | 857.9 hPa | 0 mm | - | - | - |
| 1777092621 | 8.89° C | 50% | 858 hPa | 0 mm | - | - | - |
| 1777092321 | 7.22° C | 52% | 858 hPa | 0 mm | - | - | - |
| 1777092021 | 6.67° C | 53% | 857.9 hPa | 0 mm | - | - | - |
| 1777091721 | 6.67° C | 54% | 857.8 hPa | 0 mm | - | - | - |
| 1777091421 | 6.67° C | 55% | 858 hPa | 0 mm | - | - | - |
| 1777091121 | 6.11° C | 56% | 857.9 hPa | 0 mm | - | - | - |
| 1777090821 | 5.56° C | 57% | 857.9 hPa | 0 mm | - | - | - |
| 1777090521 | 5.56° C | 58% | 857.8 hPa | 0 mm | - | - | - |
* Rain latest hour (hover to see other rain measurements)
** Current wind speed in m/s (hover to see current wind gust speed)